Timeline UpdatesTrip UpdatesNews PostsPvt PostsTravel TipsAdmin PostsConv PostsFollowed PostsChat RequestsBlog PostsPNR Posts

Disclaimer
Search
 
 
Sat Apr 19, 2014 15:48:34 ISTHomeTrainsΣChainsAtlasPNRForumGalleryNewsFAQTripsMembersLoginFeedback
No Recent News for this Train
Other Trains in the News **new
Latest...
..
Mon Dec 30, 2013 (12:01AM)
⇐ Return Journey: Train# 19037

19038/Avadh Express

Oct 03 2013 (4:56PM)
Change Departure Station:
Change Arrival Station:
Post a Train Travel TipPost a Train Travel Tip **new
Post a Comment/Question/Picture/VideoPost a Comment/Question/Picture/Video
Pantry/Catering
✓ Pantry Car Avbl
✓ Catering Avbl
Loco/Rake Reversals
LJN/Lucknow Junction (6);
RSA - Rake Sharing
19039/19040 Avadh Express.
Rake/Coach Composition
ENGINE-SLR-GEN-GEN-A1-B1-B2-PC-S1-S2-S3-S4-S5-S6-S7-S8-S9-S10-S11-S12-S13-S14-S15-SLR; Total 23 Coaches.
Loco
GKP-LJN: GD WDM-3A LJN-BDTS: BRC WAP-4
News    PNR    Forum    Time-Table    Availability    Fare Chart    Map    Arr/Dep History    Trips    Gallery    ΣChains    X/O    Timeline    
Travel Time: 24h 8m    45 halts    Distance: 1083 km    Avg Speed: 44 km/hr
Type: Mail/Express
Zone: WR/Western
Departs @ 13:20 (Avg 2m late)
Platform# 7
 M W FS
Gorakhpur Junction/GKP 
Arrives @ 13:28 +1 night (Avg 36m late)
Platform# ???
S T T S
Suwasra/SVA 

45 halts. 161 intermediate Stations between Gorakhpur Junction and Suwasra

Show ALL intermediate Stations  Show Old Time-Table

#CodeStation NameX/OArrivesAvgDepartsAvgHaltPFDay#KmSpeedElevZoneAddress
1GKP»Gorakhpur Junction (10)»  -13:20+2710.04184mNERGorakhpur 273001, Uttar Pradesh
2SWASahjanwa (2)  13:45+1513:47+152m--117.14580mNERGorakhpur - 273209, Uttar Pradesh
3MHHMaghar (3)X  13:58+1614:00+162m--125.45783mNERNH 28. Distt- SantKabirNagar- 272173, Uttar Pradesh
4KLDKhalilabad (3)X  14:09+1714:11+172m--133.96186mNERKhalilabad- 272175, Uttar Pradesh
5BSTBasti (4)  14:40+2014:45+205m2163.58090mNERBasti 272001, Uttar Pradesh
6BVBabhnan (2)  15:08+2315:10+232m--194.247101mNERDistrict- Basti, Uttar Pradesh
7MSWMaskanwa (2)  15:30+1915:32+192m--1109.947103mNERChhapaiya Rd, Uttar Pradesh
8MURMankapur Junction (5)X  15:50+1815:52+182m21124.060104mNERDistrict Gonda, Uttar Pradesh
9GDGonda Junction (3)X  16:20+1916:35+2015m21151.975110mNERGonda 271001, Uttar Pradesh
10CLJColonelGanj (2)X  16:58+2817:00+282m--1180.865108mNERGonda, Uttar Pradesh
11JLDJarwal Road (2)X  17:16+3117:18+312m--1198.044112mNERBehraich, Uttar Pradesh
12BUWBurhwal Junction (3)X  17:40+2917:42+312m--1214.151119mNERBarabanki, Uttar Pradesh
13BBKBarabanki Junction (4)X  18:14+3718:16+352m21241.245122mNRPin-225001, Uttar Pradesh
14GTNRGomti Nagar (3)  18:43+3818:45+382m11261.517117mNERLucknow, Uttar Pradesh
15BNZBadshahnagar (2)X  19:00+3119:05+325m11265.818116mNERLucknow, Uttar Pradesh
16DALDaliGanj (3)XO  19:19+2919:20+311m--1270.015121mNERHasanganj, Uttar Pradesh
17LCLucknow City (3)X  19:28+2719:30+272m11272.16127mNERLucknow, Uttar Pradesh
18LJNLucknow Junction (6)XO20:15+620:55+040m41276.861126mNERLucknow, Uttar Pradesh
19ONUnnao Junction (5)X  21:48+821:50+92m--1330.726129mNRUnnao, Uttar Pradesh
20CNBKanpur Central (10)  22:30+1222:35+185m--1348.188128mNCRKanpur, Uttar Pradesh
21PHDPhaphund (4)X  23:32+5223:34+582m--1431.345146mNCRdist. Auraiya, Uttar Pradesh
22BNTBharthana (3)X  00:22+4200:24+472m--2467.654147mNCRBharthana, Uttar Pradesh
23ETWEtawah (5)X  00:46+4600:48+522m22487.487154mNCRDistt. Etawah, Uttar Pradesh
24SKBShikohabad Junction (4)X  01:26+5901:28+1:042m32542.848166mNCRDistrict Firozabad, Uttar Pradesh
25FZDFirozabad (4)XO  01:53+4801:55+522m32562.714164mNCRFirozabad, Uttar Pradesh
26TDLTundla Junction (4)  03:05+1603:10+185m22579.328167mNCRDistt.Firozabad, Uttar Pradesh
27AFAgra Fort (3)  04:00+2104:10+2510m12602.216170mNCRRakabganj, Uttar Pradesh
28IDHIdgah Agra Junction (3)  04:18+2804:20+292m--2604.327168mNCRAgra, Uttar Pradesh
29KLBKiraoli (1)X  05:08+1505:10+172m12626.062174mNCRKiraoli, Uttar Pradesh
30FTSFatehpur Sikri (2)  05:22+1805:24+192m--2638.457176mNCRAgra, Uttar Pradesh
31RBSRupbas (2)  05:39+1905:41+192m--2652.626178mNCRJAGNER ROAD, Rajasthan
32BXNBayana Junction (3)X  07:00+307:05+55m--2686.799198mWCRBayana, Rajasthan
33HANHindaun City (2)  07:25+1407:27+142m--2719.668230mWCRKarauli, Rajasthan
34SMBJShri Mahabirji (3)X  07:36+1507:38+152m--2729.876240mWCRKarauli, Rajasthan
35GGCGangapur City (3)  08:05+1608:10+185m--2763.877270mWCRGangapur, Rajasthan
36SWMSawai Madhopur Junction (4)  09:00+1809:05+185m--2827.881266mWCRSawai Madhopur, Rajasthan
37IDGIndargarh Sumerganj Mandi (2)  09:32+2109:33+221m--2864.051247mWCRIndargarh, Rajasthan
38LKELakheri (3)X  09:46+2009:47+211m--2875.058228mWCRBundi, Rajasthan
39KOTAKota Junction (5)X  10:50+1710:55+225m22935.643256mWCRKota, Rajasthan
40DKNTDakaniya Talav (2)  11:08+2611:10+282m22944.974278mWCRKota, Rajasthan
41MKXMorak (2)X  11:53+2811:55+282m--2997.849337mWCRMorak, Rajasthan
42RMARamganj Mandi Junction (3)X  12:06+2812:08+282m--21006.862358mWCRRamganj Mandi, Rajasthan
43JHWJhalawar Road (3)  12:20+2812:22+282m--21019.271361mWCRJhalawar City, Rajasthan
44BWMBhawani Mandi (3)X  12:36+2912:38+302m--21035.776384mWCRBhawani Mandi, Madhya Pradesh
45GOHGaroth (2)  12:56+3212:58+322m121058.354441mWCRMadhya Pradesh 458880, Madhya Pradesh
46SGZShamgarh (3)  13:10+3413:15+345m--21069.262463mWCRMandsaur, Madhya Pradesh
47SVA•Suwasra (2)•  13:28+3613:30+362m--21082.671450mWCRSuwasra, Madhya Pradesh
48CMUChau Mahla (3)  13:43+3713:45+392m121098.023426mWCRJhalawar, Rajasthan
49VMAVikramgarh Alot (2)X  14:43+714:45+92m121119.843443mWCRKota Division, Madhya Pradesh
50MEPMahidpur Road  15:18+115:20+32m--21143.741493mWCRGogapur, Madhya Pradesh
51NADNagda Junction (4)X  15:45+415:47+102m--21160.875468mWRNagda, Madhya Pradesh
52KUHKhachrod (2)  15:58+1316:00+132m--21174.655497mWRUjjain, Madhya Pradesh
53RTMRatlam Junction (7)  16:30+1216:50+1020m421202.277495mWRRatlam, Madhya Pradesh
54BMIBamnia (2)  17:25+1617:27+162m--21246.976392mWRBamnia, Madhya Pradesh
55MGNMeghnagar (3)  17:55+1917:57+192m--21282.586317mWRJhabua, Madhya Pradesh
56DHDDahod (3)  18:20+2918:22+302m221315.647313mWRDahod, Gujarat
57GDAGodhra Junction (3)X  19:55+419:57+52m--21388.776122mWRGodhra, Gujarat
58BRCVadodara Junction (7)X  20:55+1621:05+1510m121462.68936mWRVadodara, Gujarat
59AKVAnkleshwar Junction (4)X  21:59+2422:01+232m221542.43619mWRAnkleshwar, Gujarat
60STSurat (4)  23:25+623:30+75m221592.46219mWRSurat 395001, Gujarat
61BLValsad (3)  00:36+1400:37+161m331661.17915mWRValsad, Gujarat
62VAPIVapi (3)X  00:57+2000:59+202m231687.36827mWRVapi, Gujarat
63BORBoisar (3)  02:01+2002:03+202m331757.64517mWRBoisar Tel.no-02525-266626, Maharashtra
64BVIMumbai Borivali (8)  03:35+803:40+95m631825.83419mWRMumbai - 400092, Maharashtra
65ADHMumbai Andheri (9)O  04:02+504:04+62m--31838.41212mWRMumbai, Maharashtra
66BDTSMumbai Bandra Terminus (5)  04:35+3-231844.6-4mWRMumbai 400050, Maharashtra
Scroll to Top
Scroll to Bottom